Weather History for Mather AFB, CA

Change the Weather History Date:

Wednesday, December 26, 2012

  Actual Average Record
Temperature  
Mean Temperature 45 °F -  
Max Temperature 51 °F 50 °F 64 °F (2013)
Min Temperature 37 °F 37 °F 23 °F (2011)
Degree Days  
Heating Degree Days 20    
Moisture  
Dew Point 43 °F    
Average Humidity 91    
Maximum Humidity 100    
Minimum Humidity 67    
Precipitation  
Precipitation 0.00 in - - ()
Sea Level Pressure  
Sea Level Pressure 29.96 in    
Wind  
Wind Speed 10 mph (SSW)    
Max Wind Speed 13 mph    
Max Gust Speed 16 mph    
Visibility 8 miles    
Events Rain    
Averages and records for this station are not official NWS values.
T = Trace of Precipitation, MM = Missing Value Source: NWS Daily Summary

Daily Weather History Graph

Daily Weather History Graph

Search for Another Location

Airport:

Trip Planner

Search our weather history database for the weather conditions in past years. The results will help you decide how hot, cold, wet, or windy it might be!

Date:

Astronomy

Dec. 26, 2012 Rise Set
Actual Time 7:21 AM PST 4:50 PM PST
Civil Twilight 6:51 AM PST 5:20 PM PST
Nautical Twilight 6:18 AM PST 5:53 PM PST
Astronomical Twilight 5:46 AM PST 6:26 PM PST
Moon 3:48 PM PST (12/26) 5:49 AM PST (12/26)
Length of Visible Light 10h 28m
Length of Day
9h 29m
Waxing Gibbous, 98% of the Moon is Illuminated
Dec 26
Waxing Gibbous
Dec 28
Full
Jan 4
Last Quarter
Jan 11
New
Jan 18
First Quarter

Hourly Weather History & Observations

Time (PST) Temp. Windchill Dew Point Humidity Pressure Visibility Wind Dir Wind Speed Gust Speed Precip Events Conditions
12:50 AM 44.6 °F 38.4 °F 44.6 °F 100% 29.84 in 5.0 mi South 12.7 mph - N/A Rain Light Rain
3:50 AM 44.6 °F 39.2 °F 44.6 °F 100% 29.86 in 4.0 mi SSE 10.4 mph - N/A Rain Light Rain
5:45 AM 42.8 °F 37.0 °F 42.8 °F 100% 29.88 in 5.0 mi SSE 10.4 mph - N/A   Mostly Cloudy
6:54 AM 41.0 °F 34.3 °F 41.0 °F 100% 29.90 in 5.0 mi SE 11.5 mph - N/A   Mostly Cloudy
7:54 AM 42.8 °F 36.6 °F 42.8 °F 100% 29.91 in 5.0 mi SE 11.5 mph - N/A   Mostly Cloudy
8:55 AM 42.8 °F 36.6 °F 42.8 °F 100% 29.93 in 5.0 mi SE 11.5 mph - N/A   Mostly Cloudy
9:47 AM 44.6 °F 38.8 °F 44.6 °F 100% 29.95 in 7.0 mi SSE 11.5 mph - N/A   Mostly Cloudy
10:52 AM 48.2 °F - 44.6 °F 87% 29.95 in 10.0 mi South 11.5 mph 16.1 mph N/A   Mostly Cloudy
11:11 AM 48.2 °F - 44.6 °F 87% 29.95 in 10.0 mi SSW 11.5 mph - N/A   Mostly Cloudy
11:46 AM 48.2 °F - 44.6 °F 87% 29.94 in 10.0 mi SW 12.7 mph - N/A   Mostly Cloudy
12:46 PM 50.0 °F - 44.6 °F 82% 29.94 in 10.0 mi SW 9.2 mph - N/A   Mostly Cloudy
1:46 PM 51.8 °F - 41.0 °F 67% 29.94 in 10.0 mi NW 5.8 mph - N/A   Mostly Cloudy
2:46 PM 51.8 °F - 44.6 °F 76% 29.95 in 10.0 mi NW 8.1 mph - N/A   Scattered Clouds
3:45 PM 48.2 °F - 44.6 °F 87% 29.97 in 10.0 mi NW 6.9 mph - N/A   Scattered Clouds
4:45 PM 46.4 °F 43.5 °F 41.0 °F 81% 30.00 in 10.0 mi NW 5.8 mph - N/A   Scattered Clouds
5:58 PM 44.6 °F 43.1 °F 41.0 °F 87% 30.01 in 10.0 mi WNW 3.5 mph - N/A   Mostly Cloudy
6:45 PM 42.8 °F 39.3 °F 41.0 °F 93% 30.02 in 10.0 mi NW 5.8 mph - N/A   Partly Cloudy
8:45 PM 41.0 °F - 39.2 °F 93% 30.04 in 10.0 mi Calm Calm - N/A   Scattered Clouds
9:45 PM 39.2 °F - 39.2 °F 100% 30.06 in 10.0 mi Calm Calm - N/A   Clear
10:45 PM 37.4 °F - 37.4 °F 100% 30.08 in 10.0 mi Calm Calm - N/A   Scattered Clouds